Location: Milton
(43.5183°N, 79.8775°W)
Time: 02:35:32
(UTC+00:00)

Gurwin Techsat 1B - Visible Passes

Search period start: 16 April 2024 00:00
Search period end: 26 April 2024 00:00
Orbit: 811 x 813 km, 98.9° (Epoch: 15 April)

Date Brightness Start Highest point End Pass type
(mag) Time Alt. Az. Time Alt. Az. Time Alt. Az.
16 Apr 9.2 08:37:25 10° NNE 08:42:40 56° E 08:47:28 12° S visible
17 Apr 10.0 08:14:30 10° NNE 08:19:22 35° E 08:24:06 10° SSE visible
17 Apr 9.5 09:54:29 10° N 09:59:11 32° WNW 10:03:50 10° SW visible
18 Apr 10.7 07:51:54 10° NE 07:55:59 22° E 08:00:02 10° SE visible
18 Apr 8.9 09:31:00 10° N 09:36:08 51° WNW 09:41:15 10° SW visible
19 Apr 11.2 07:29:58 10° ENE 07:32:31 13° E 07:35:04 10° ESE visible
19 Apr 8.6 09:07:40 10° NNE 09:13:01 80° WNW 09:18:19 10° SSW visible
20 Apr 9.0 08:44:30 10° NNE 08:49:49 65° ESE 08:55:05 10° S visible
21 Apr 9.8 08:21:32 10° NNE 08:26:32 40° E 08:31:30 10° SSE visible
22 Apr 10.5 07:58:49 10° NE 08:03:10 25° E 08:07:30 10° SSE visible
22 Apr 9.1 09:38:12 10° N 09:43:14 44° WNW 09:48:14 10° SW visible
23 Apr 11.1 07:36:35 10° NE 07:39:44 16° E 07:42:51 10° SE visible
23 Apr 8.6 09:14:49 10° N 09:20:07 71° WNW 09:25:24 10° SSW visible
24 Apr 8.8 08:51:36 10° NNE 08:56:57 74° ESE 09:02:15 10° S visible
25 Apr 9.5 08:28:34 10° NNE 08:33:41 46° E 08:38:46 10° S visible
